Printer-friendly version

IAU Minor Planet Center

Minor Planet Center

MPEC 2006-M33 : 2006 MJ10

The following Minor Planet Electronic Circular may be linked-to from your own Web pages, but must not otherwise be redistributed electronically.


Read MPEC 2006-M32 Read MPEC 2006-M34


M.P.E.C. 2006-M33                                Issued 2006 June 23, 11:24 UT

     The Minor Planet Electronic Circulars contain information on unusual
         minor planets and routine data on comets.  They are published
   on behalf of Commission 20 of the International Astronomical Union by the
          Minor Planet Center, Smithsonian Astrophysical Observatory,
                          Cambridge, MA 02138, U.S.A.

                  Supported in part by the Brinson Foundation
                  Supported in part by the TABASGO Foundation
             Prepared using the Tamkin Foundation Computer Network

                              MPC@CFA.HARVARD.EDU
          URL http://cfa-www.harvard.edu/iau/mpc.html  ISSN 1523-6714

                                   2006 MJ10

Observations:
     K06M10J* C2006 06 22.37403 21 56 34.28 -10 57 13.2          18.5 R EM033699
     K06M10J  C2006 06 22.39231 21 56 39.54 -10 58 20.8                 EM033699
     K06M10J  C2006 06 22.41060 21 56 44.78 -10 59 26.2                 EM033699
     K06M10J  C2006 06 23.04005 21 59 53.95 -11 37 59.7                 EM033J95
     K06M10J  C2006 06 23.04917 21 59 56.72 -11 38 33.3                 EM033J95
     K06M10J  C2006 06 23.05337 21 59 57.97 -11 38 49.8                 EM033J95
     K06M10J  C2006 06 23.05757 21 59 59.23 -11 39 05.5          18.4 R EM033J95
     K06M10J  C2006 06 23.28047 22 01 07.45 -11 52 46.4          18.4 R EM033I77
     K06M10J  C2006 06 23.28723 22 01 09.50 -11 53 12.2          18.4 R EM033I77
     K06M10J  C2006 06 23.29546 22 01 11.96 -11 53 43.5          18.4 R EM033I77

Observer details:
699 Lowell Observatory-LONEOS.  Observer B. A. Skiff.  0.59-m LONEOS Schmidt
    + CCD.
I77 CEAMIG-REA Observatory, Belo Horizonte.  Observers C. Jacques, E. Pimentel.
    Measurer C. Jacques.  0.30-m f/3.0 Schmidt-Cassegrain + CCD.
J95 Great Shefford.  Observer P. Birtwhistle.  0.40-m f/6.0 Schmidt-Cassegrain
    + CCD.

Orbital elements:
2006 MJ10                                                Earth MOID = 0.1848 AU
Epoch 2006 Mar. 6.0 TT = JDT 2453800.5                  MPC
M 303.14420              (2000.0)            P               Q
n   0.31451981     Peri.  267.24596     +0.74400325     -0.25229079
a   2.1414308      Node   106.72316     +0.41574562     +0.89969342
e   0.6210153      Incl.   40.24359     -0.52308197     +0.35623181
P   3.13           H   18.6           G   0.15           U   8
Residuals in seconds of arc
060622 699  0.1+  1.2+    060623 J95  0.2+  0.6+    060623 I77  0.2+  0.1+
060622 699  0.1+  0.6-    060623 J95  0.0   0.1-    060623 I77  0.1-  0.2+
060622 699  0.2-  0.2-    060623 J95  0.2-  0.0
060623 J95  0.0   0.1-    060623 I77  0.1+  0.1+

Ephemeris:
2006 MJ10                a,e,i = 2.11, 0.62, 40                  q = 0.8081
Date    TT    R. A. (2000) Decl.     Delta      r     Elong.  Phase     V
2006 06 24    22 04.93   -12 39.6    0.386    1.271   123.5    41.8    18.7
2006 07 04    23 23.91   -27 46.7    0.281    1.179   119.0    49.0    18.0
2006 07 14    02 03.97   -44 05.2    0.257    1.089    99.5    67.0    18.2
2006 07 24    04 51.07   -43 56.8    0.323    1.004    78.8    82.9    19.1
2006 08 03    06 15.29   -37 22.0    0.433    0.928    66.2    88.6    19.7
2006 08 13    06 58.58   -31 24.9    0.554    0.867    58.8    88.1    20.1
2006 08 23    07 27.05   -26 14.2    0.673    0.825    54.2    84.3    20.3
2006 09 02    07 50.25   -21 27.2    0.783    0.808    51.8    78.7    20.4
2006 09 12    08 11.91   -16 55.3    0.877    0.819    51.0    72.7    20.4
2006 09 22    08 33.31   -12 39.9    0.952    0.856    51.8    67.2    20.5
2006 10 02    08 54.50   -08 41.8    1.007    0.914    54.2    62.6    20.6
2006 10 12    09 15.15   -04 57.9    1.040    0.987    57.9    58.9    20.8
2006 10 22    09 34.86   -01 21.9    1.055    1.070    62.9    55.8    20.9
2006 11 01    09 53.18   +02 16.0    1.052    1.159    69.0    53.1    21.0
2006 11 11    10 09.72   +06 06.7    1.037    1.251    76.2    50.2    21.0
2006 11 21    10 24.03   +10 21.8    1.012    1.344    84.4    47.0    21.0
2006 12 01    10 35.49   +15 12.4    0.982    1.436    93.7    43.2    21.0
2006 12 11    10 43.42   +20 45.9    0.954    1.527   103.9    38.7    21.0
2006 12 21    10 46.86   +27 02.8    0.934    1.617   114.9    33.5    20.9
2006 12 31    10 44.68   +33 49.7    0.930    1.704   125.8    27.9    20.8
2007 01 10    10 35.86   +40 36.3    0.948    1.788   135.6    22.6    20.8
2007 01 20    10 19.95   +46 41.6    0.994    1.871   142.1    18.8    20.9
2007 01 30    09 58.07   +51 26.7    1.067    1.950   143.7    17.4    21.1
2007 02 09    09 33.51   +54 32.6    1.168    2.027   140.3    18.1    21.4
2007 02 19    09 10.62   +56 04.8    1.291    2.102   134.1    19.7    21.8
2007 03 01    08 52.98   +56 24.4    1.432    2.174   126.6    21.4    22.1

Timothy B. Spahr             (C) Copyright 2006 MPC           M.P.E.C. 2006-M33

Read MPEC 2006-M32 Read MPEC 2006-M34


Our Web policy. Index to the CBAT/MPC/ICQ pages.


Valid HTML 4.01!